Location: Ettlingen
(48.9417°N, 8.4061°E)
Time: 01:22:18
(UTC+00:00)

Daily predictions for brighter satellites

Satellite Brightness Start Highest point End
(mag) Time Altitude Azimuth Time Altitude Azimuth Time Altitude Azimuth
Cosmos 2344 4.1 02:53:31 49° ESE 02:53:31 49° ESE 03:00:27 10° NE
USA 215 3.5 03:19:37 10° E 03:25:43 61° NE 03:25:43 61° NE
Cosmos 2369 Rocket 4.2 03:33:57 10° SSE 03:38:22 24° ESE 03:42:47 10° NE
NOSS 3-3 (A) 4.3 03:44:27 78° W 03:44:55 82° SW 03:53:23 10° SE
NOSS 3-3 (C) 4.3 03:44:31 78° W 03:45:01 82° SW 03:53:28 10° SE
COSMO-SKYMED 1 4.2 03:44:22 10° SE 03:48:13 32° ENE 03:48:36 31° NE
MOS 1-B Rocket 4.3 03:45:15 10° SSE 03:51:24 61° ENE 03:54:14 30° N
Tsikada Rocket 4.3 03:46:57 10° S 03:53:03 64° E 03:59:16 10° NNE
Gblst 52 Del rocket 4.4 03:54:35 72° SSE 03:54:45 72° SSE 04:01:24 10° ENE
Cosmos 1943 Rocket 2.1 04:06:38 69° S 04:07:20 83° ESE 04:13:01 10° NNE
CZ-2C R/B 3.2 04:04:00 10° SSE 04:09:22 57° ENE 04:13:25 17° N
Cosmos 1241 Rocket 4.3 04:10:33 70° WSW 04:10:33 70° WSW 04:16:41 10° SSE
SL-19 R/B 4.2 04:06:00 10° SSE 04:11:36 85° ENE 04:13:21 46° NNW
SL-8 R/B 3.7 04:16:23 74° SE 04:16:23 74° SE 04:20:49 10° ESE
CENTAUR R/B 2.4 04:16:08 54° SW 04:17:42 86° NW 04:24:59 10° NE
Cosmos 2297 3.6 04:21:06 58° SW 04:22:15 79° WNW 04:28:01 10° NNE
Iridium 2 4.5 04:23:40 10° SSE 04:27:20 51° E 04:31:02 10° NNE
SL-24 R/B 4.4 04:23:24 10° N 04:27:42 61° NNW 04:27:42 61° NNW
NOSS 3-2 (A) 3.3 04:27:50 56° W 04:28:44 64° NW 04:35:23 10° NE
Cosmos 2278 Rocket 3.8 04:33:50 20° NNW 04:33:50 20° NNW 04:36:29 10° N
Envisat 3.1 04:29:57 10° NNE 04:35:04 74° ESE 04:40:09 10° S
Meteor 2-6 Rocket 4.5 04:30:16 10° N 04:35:41 65° ENE 04:41:02 10° SSE
SKYMED 2 3.4 04:31:47 10° SSE 04:36:08 90° W 04:37:12 51° NNW
NOSS 3-2 (C) 3.3 04:33:35 35° SW 04:36:13 87° NW 04:42:49 10° NE
Cosmos 2098 Rocket 3.2 04:38:24 10° S 04:42:16 71° E 04:47:13 10° NNE
Meteor 2-3 Rocket 3.7 04:37:25 10° SSW 04:43:00 60° WNW 04:48:42 10° N
Landsat 5 3.6 04:41:15 10° SSE 04:45:47 89° ENE 04:48:26 25° NNW
Cosmos 968 Rocket 3.3 04:42:38 19° SSW 04:46:21 72° WNW 04:51:30 10° NNE
Meteor 2-13 Rocket 4.3 04:41:19 10° SSW 04:47:26 80° W 04:53:33 10° N
CZ-4B R/B 4.2 04:43:08 10° NNE 04:47:35 78° ESE 04:52:04 10° S
Genesis I 4.3 04:49:24 32° SSW 04:49:24 32° SSW 04:52:13 10° S
FALCON 9 DEB 4.0 04:49:58 34° NE 04:49:58 34° NE 04:51:50 10° ENE
Cosmos 921 Rocket 3.1 04:50:35 52° W 04:50:39 52° WSW 04:54:59 10° S
Okean 3 Rocket 3.9 04:49:26 10° S 04:53:55 69° E 04:58:28 10° NNE
DNEPR-1 R/B 3.8 04:53:15 39° NW 04:55:05 83° SW 05:00:40 10° SE
Cosmos 1833 4.2 04:51:16 21° NNW 04:55:09 82° ENE 05:00:53 10° SSE
H-2A R/B 3.4 04:52:31 10° SE 04:56:28 38° ENE 05:00:32 10° N
Cosmos 1812 2.7 04:56:57 57° W 04:57:01 57° W 05:00:47 10° S
CBERS 1 LM4 rocket 4.3 04:53:26 10° NNE 04:58:18 87° WNW 05:03:18 10° SSW
ADEOS 4.1 04:53:23 10° NNE 04:58:36 62° ESE 05:03:45 10° S
Cosmos 2142 Rocket 4.4 04:57:20 10° NNW 05:03:40 73° W 05:10:00 10° S
Cosmos 1151 Rocket 3.0 05:01:35 26° NNW 05:03:52 59° W 05:08:09 10° S
USA 238 DEB 3.7 05:00:11 23° WSW 05:04:26 61° NW 05:11:21 10° NE
USA 238 3.6 05:00:14 22° WSW 05:04:33 61° NW 05:11:27 10° NE
CZ-2C R/B 3.9 05:01:51 10° NNE 05:06:34 49° E 05:11:26 10° S
Cosmos 1766 Rocket 3.4 05:02:46 10° SSW 05:07:07 80° W 05:11:28 10° N
Cosmos 2344 3.8 05:03:34 26° W 05:07:33 48° NNW 05:15:33 10° NE
Cosmos 2263 4.3 05:02:23 10° SSW 05:08:05 83° ESE 05:13:52 10° NNE
USA 215 3.4 05:02:41 10° SE 05:09:06 59° SW 05:13:03 25° WNW
Kosmos-917 4.2 05:12:30 37° WNW 05:13:12 44° NNW 05:18:44 10° NE
Meteor 1-31 Rocket 2.8 05:09:41 10° N 05:13:31 57° WNW 05:17:20 10° SSW
Cosmos 2279 Rocket 3.9 05:08:17 10° NNW 05:14:24 65° W 05:20:30 10° S
Cosmos 2297 Rocket 4.1 05:10:51 10° N 05:15:17 23° NE 05:19:42 10° E
Cosmos 1328 Rocket 3.5 05:12:41 13° NNW 05:16:33 61° W 05:20:50 10° S
IRAS Rocket 4.1 05:12:23 10° SSE 05:17:55 84° WSW 05:23:27 10° NNW
BREEZE-M DEB (TANK) 4.5 05:06:20 10° SW 05:18:01 44° SSE 05:21:37 10° E
SJ-12 4.3 05:15:01 10° N 05:18:52 39° WNW 05:22:44 10° SW
Cosmos 2369 Rocket 2.1 05:16:25 10° SW 05:21:57 61° WNW 05:27:32 10° NNE
FALCON 9 DEB 3.1 05:21:07 37° W 05:22:12 61° NNW 05:25:34 10° ENE
Cosmos 1862 3.3 05:19:34 10° SSW 05:23:25 53° WNW 05:27:19 10° N
COSMO-SKYMED 1 3.3 05:20:32 10° SSW 05:24:23 30° W 05:25:48 25° WNW
Nadezhda 4 Rocket 4.3 05:20:27 10° S 05:26:33 72° E 05:32:47 10° NNE
H-2A R/B 3.4 05:23:36 10° N 05:26:50 29° WNW 05:30:05 10° SW
H-2A R/B 4.2 05:29:17 10° NE 05:33:27 27° E 05:37:36 10° SSE
Meteor 2-15 Rocket 4.4 05:28:04 10° N 05:34:11 84° W 05:40:15 10° S
Cosmos 2228 Rocket 4.2 05:30:20 10° N 05:34:39 45° ENE 05:38:59 10° SSE
CZ-4B R/B 2.5 05:32:43 10° NNE 05:36:20 87° ESE 05:39:54 10° SSW
Lacrosse 4 Rocket 4.0 05:35:27 10° N 05:37:25 13° NNE 05:39:24 10° NE
CZ-4B R/B 2.3 05:36:58 10° SSE 05:40:11 49° ENE 05:43:24 10° N
YAOGAN 6 4.5 05:39:10 10° NNW 05:40:14 15° NNW 05:40:14 15° NNW
Cosmos 1408 Rocket 3.4 05:38:13 10° SSW 05:42:30 72° W 05:46:49 10° N
CZ-4C R/B 4.0 05:42:50 10° SSW 05:45:19 22° W 05:46:01 20° WNW
Cosmos 1656 Rocket 3.7 05:40:20 10° SW 05:45:38 55° WNW 05:51:01 10° NNE
DMSP B5D2-2 4.2 05:40:35 10° S 05:45:41 55° W 05:50:49 10° NNW
Cosmos 1503 Rocket 4.0 05:40:45 10° SW 05:45:59 64° WNW 05:51:19 10° NNE
USA 32 4.3 05:41:00 10° N 05:46:16 74° E 05:51:30 10° SSE
Cosmos 1743 Rocket 3.8 05:45:27 10° S 05:49:50 75° E 05:54:12 10° NNE
CZ-2C R/B 3.7 05:45:37 10° SW 05:49:59 24° W 05:54:19 10° NW
Cosmos 2227 Rocket 3.9 05:45:57 10° NNW 05:50:47 28° NE 05:55:34 10° ESE
Cosmos 1943 Rocket 3.3 05:48:15 14° W 05:51:48 23° NW 05:56:16 10° N
FAST Rocket 4.1 05:49:23 10° S 05:51:58 80° E 05:55:05 10° N
Cosmos 1515 Rocket 3.9 05:52:40 10° NNW 05:56:49 42° W 06:00:54 10° SSW
PSLV R/B 4.2 05:53:34 10° SSE 05:57:36 71° ENE 06:01:42 10° N
Cosmos 1777 Rocket 4.2 05:52:28 10° SSW 05:57:40 81° ESE 06:02:56 10° NNE
SL-8 R/B 4.5 05:54:22 13° W 05:58:19 42° SSW 06:02:48 10° SE
FALCON 9 DEB 3.6 05:56:51 17° WNW 05:58:43 35° N 06:01:25 10° ENE
Meteor 1-27 Rocket 3.8 05:54:20 10° NNW 05:59:52 60° W 06:05:29 10° S
NOAA 6 4.2 05:56:41 10° NNE 06:01:51 80° ESE 06:06:58 10° SSW
Cosmos 1602 4.2 05:58:29 10° S 06:02:15 63° E 06:06:02 10° NNE
COSMOS 2487 2.5 06:00:48 10° NNW 06:04:11 75° ENE 06:07:31 10° SSE
Cosmos 773 Rocket 4.3 05:59:28 10° NNW 06:04:28 46° WSW 06:09:24 10° S
FALCON 9 DEB 3.6 06:03:16 14° WNW 06:05:21 33° N 06:08:01 10° ENE
SJ 16-02 1.3 06:02:49 10° SSW 06:07:12 89° WNW 06:11:37 10° NNE
FALCON 9 DEB 3.6 06:05:15 13° WNW 06:07:26 34° N 06:10:06 10° ENE
CENTAUR R/B 3.5 06:03:35 10° W 06:09:26 34° NNW 06:16:19 10° NE
Alouette 2 Rocket 3.3 06:06:28 10° NNW 06:10:24 58° W 06:13:52 10° S
NOAA 12 4.2 06:07:46 10° N 06:12:56 57° WNW 06:18:03 10° SSW
Cosmos 1689 Rocket 4.4 06:11:34 10° ESE 06:13:31 19° ENE 06:15:28 10° NNE
Envisat 4.3 06:10:01 10° NNW 06:13:33 19° WNW 06:17:04 10° WSW
Cosmos 1340 Rocket 2.8 06:11:26 10° SSW 06:15:20 60° WNW 06:19:19 10° N
SL-27 R/B 3.5 06:14:32 10° NW 06:17:40 28° WSW 06:20:46 10° SSW
Cosmos 1500 Rocket 3.7 06:14:25 10° SSW 06:18:46 54° WNW 06:23:10 10° N
Cosmos 1939 Rocket 3.1 06:15:46 10° N 06:19:33 44° WNW 06:23:16 10° SW
Cosmos 2219 4.3 06:16:16 10° NNW 06:21:38 41° NE 06:26:58 10° ESE
FALCON 9 DEB 3.6 06:21:44 10° WNW 06:24:26 34° N 06:27:08 10° ENE
